Clyde, Nunavut

8:15 AM ADT on May 20, 2018 (GMT -0300)
Clyde

Weather History for CYCY - October, 2011

Change the Weather History Date:

Tuesday, October 11, 2011

  Actual Average Record
Temperature  
Mean Temperature 19 °F -  
Max Temperature 23 °F 18 °F 34 °F (2014)
Min Temperature 15 °F 6 °F 5 °F (2001)
Degree Days  
Heating Degree Days 46    
Moisture  
Dew Point -    
Average Humidity    
Maximum Humidity    
Minimum Humidity    
Precipitation  
Precipitation 0.00 in 0.04 in - ()
Sea Level Pressure  
Sea Level Pressure 29.98 in    
Wind  
Wind Speed 19 mph ()    
Max Wind Speed 32 mph    
Max Gust Speed 38 mph    
Visibility 3.4 miles    
Events Rain , Snow    
Averages and records for this station are not official NWS values.
T = Trace of Precipitation, MM = Missing Value Source: Averaged Metar Reports

Daily Weather History Graph

Daily Weather History Graph

Search for Another Location

Airport or City:

Astronomy

Oct. 11, 2011 Rise Set
Actual Time 8:31 AM ADT 6:08 PM ADT
Civil Twilight 7:27 AM ADT 7:11 PM ADT
Nautical Twilight 6:15 AM ADT 8:23 PM ADT
Astronomical Twilight 4:56 AM ADT 9:41 PM ADT
Moon 5:03 PM ADT (10/11) 8:28 AM ADT (10/11)
Length of Visible Light 11h 44m
Length of Day
9h 37m
Full, 100% of the Moon is Illuminated
Oct 11
Full
Oct 11
Full
Oct 20
Last Quarter
Oct 26
New
Nov 2
First Quarter

Hourly Weather History & Observations

Time (ADT) Temp. Windchill Dew Point Humidity Pressure Visibility Wind Dir Wind Speed Gust Speed Precip Events Conditions
12:00 AM 20 °F - - % 29.93 in 9 mi WNW 8.1 mph - -  
12:00 AM 19.4 °F 9.5 °F - N/A% 29.93 in 9.0 mi NW 8.1 mph - N/A   Mostly Cloudy
12:03 AM 19.4 °F 9.5 °F - N/A% 29.91 in 9.0 mi NW 8.1 mph - N/A Snow Light Snow
12:06 AM 23.0 °F 11.7 °F - N/A% 29.91 in 9.0 mi NNW 11.5 mph - N/A   Mostly Cloudy
1:00 AM 21.2 °F 7.8 °F - N/A% 29.93 in 9.0 mi NNW 15.0 mph - N/A   Mostly Cloudy
1:24 AM 21.2 °F 7.8 °F - N/A% 29.92 in 9.0 mi NW 15.0 mph - N/A Snow Light Snow
1:29 AM 21.2 °F 6.8 °F - N/A% 29.92 in 6.0 mi NW 17.3 mph - N/A Rain Light Freezing Rain
1:36 AM 21.2 °F 5.6 °F - N/A% 29.92 in 4.0 mi NW 20.7 mph - N/A Snow Light Snow
1:48 AM 21.2 °F 6.8 °F - N/A% 29.92 in 9.0 mi NNW 17.3 mph - N/A   Overcast
2:00 AM 17.6 °F 5.0 °F - N/A% 29.93 in 9.0 mi NW 11.5 mph - N/A   Overcast
2:20 AM 19.4 °F 4.5 °F - N/A% 29.92 in 9.0 mi NW 17.3 mph - N/A Snow Light Snow
2:27 AM 19.4 °F 5.0 °F - N/A% 29.92 in 2.0 mi WNW 16.1 mph - N/A Snow Light Snow
2:28 AM 19.4 °F 5.5 °F - N/A% 29.92 in 1.4 mi WNW 15.0 mph - N/A Snow Light Snow
2:38 AM 19.4 °F 6.6 °F - N/A% 29.92 in 4.0 mi NW 12.7 mph - N/A Snow Light Snow
2:44 AM 21.2 °F 8.9 °F - N/A% 29.92 in 9.0 mi NW 12.7 mph - N/A   Overcast
2:56 AM 21.2 °F 6.8 °F - N/A% 29.92 in 9.0 mi NW 17.3 mph - N/A Snow Light Snow
3:00 AM 21 °F - - % 29.94 in 5 mi NW 17.3 mph - -   Overcast
3:00 AM 21.2 °F 6.4 °F - N/A% 29.94 in 5.0 mi NW 18.4 mph - N/A Snow Light Snow
3:21 AM 19.4 °F 2.1 °F - N/A% 29.92 in 9.0 mi NW 24.2 mph - N/A   Overcast
3:32 AM 19.4 °F 1.8 °F - N/A% 29.92 in 3.5 mi NW 25.3 mph - N/A Snow Light Snow
3:40 AM 21.2 °F 6.0 °F - N/A% 29.93 in 3.5 mi NW 19.6 mph 28.8 mph N/A Snow Light Snow
3:45 AM 21.2 °F 5.2 °F - N/A% 29.93 in 7.0 mi NW 21.9 mph - N/A Snow Light Snow
3:49 AM 21.2 °F 5.6 °F - N/A% 29.93 in 2.5 mi NW 20.7 mph - N/A Snow Light Snow
3:53 AM 21.2 °F 4.9 °F - N/A% 29.93 in 1.4 mi NW 23.0 mph - N/A Snow Light Snow
4:00 AM 19.4 °F 5.5 °F - N/A% 29.94 in 1.5 mi WNW 15.0 mph 25.3 mph N/A Snow Light Snow
4:06 AM 19.4 °F 6.6 °F - N/A% 29.93 in 2.5 mi West 12.7 mph - N/A Snow Light Snow
4:10 AM 19.4 °F 6.0 °F - N/A% 29.93 in 2.5 mi West 13.8 mph - N/A   Overcast
4:13 AM 17.6 °F 2.2 °F - N/A% 29.93 in 9.0 mi WNW 17.3 mph - N/A   Overcast
5:00 AM 15.8 °F -1.5 °F - N/A% 29.95 in 9.0 mi West 20.7 mph - N/A   Partly Cloudy
6:21 AM 15.8 °F -2.3 °F - N/A% 29.94 in 3.0 mi WNW 23.0 mph - N/A Snow Light Snow
6:22 AM 15.8 °F -2.7 °F - N/A% 29.94 in 2.1 mi WNW 24.2 mph - N/A Snow Light Snow
6:26 AM 17.6 °F -0.3 °F - N/A% 29.94 in 1.4 mi WNW 24.2 mph - N/A Snow Light Snow
6:32 AM 17.6 °F -1.0 °F - N/A% 29.94 in 1.2 mi WNW 26.5 mph - N/A Snow Light Snow
6:44 AM 19.4 °F 1.1 °F - N/A% 29.94 in 1.5 mi WNW 27.6 mph - N/A Snow Light Snow
6:47 AM 19.4 °F 0.8 °F - N/A% 29.93 in 1.4 mi WNW 28.8 mph - N/A Snow Light Snow
6:49 AM 19.4 °F 0.8 °F - N/A% 29.93 in 1.2 mi WNW 28.8 mph - N/A Snow Light Snow
6:52 AM 19.4 °F 1.1 °F - N/A% 29.94 in 1.1 mi WNW 27.6 mph 33.4 mph N/A Snow Light Snow
7:00 AM 19.4 °F 1.1 °F - N/A% 29.95 in 1.1 mi WNW 27.6 mph - N/A Snow Light Snow
7:06 AM 19.4 °F 1.1 °F - N/A% 29.94 in 1.0 mi WNW 27.6 mph - N/A Snow Light Snow
7:08 AM 21.2 °F 2.7 °F - N/A% 29.94 in 0.6 mi WNW 31.1 mph - N/A Snow Light Snow
7:09 AM 21.2 °F 2.4 °F - N/A% 29.94 in 0.6 mi WNW 32.2 mph - N/A Snow Light Snow
7:18 AM 19.4 °F 0.8 °F - N/A% 29.94 in 0.6 mi WNW 28.8 mph 35.7 mph N/A Snow Light Snow
7:24 AM 19.4 °F 0.5 °F - N/A% 29.94 in 0.6 mi WNW 29.9 mph - N/A   Overcast
7:25 AM 19.4 °F 0.5 °F - N/A% 29.94 in 0.6 mi WNW 29.9 mph - N/A   Overcast
7:29 AM 21.2 °F 3.3 °F - N/A% 29.94 in 1.0 mi WNW 28.8 mph - N/A   Overcast
7:36 AM 21.2 °F 3.9 °F - N/A% 29.95 in 1.2 mi WNW 26.5 mph 33.4 mph N/A Snow Light Snow
7:37 AM 21.2 °F 3.9 °F - N/A% 29.95 in 1.2 mi WNW 26.5 mph 33.4 mph N/A Snow Light Snow
7:43 AM 21.2 °F 4.2 °F - N/A% 29.95 in 1.2 mi WNW 25.3 mph - N/A Snow Light Snow
7:47 AM 21.2 °F 4.9 °F - N/A% 29.95 in 1.1 mi WNW 23.0 mph 28.8 mph N/A Snow Light Snow
7:54 AM 23.0 °F 7.2 °F - N/A% 29.96 in 1.1 mi NW 23.0 mph - N/A Snow Light Snow
8:00 AM 23.0 °F 6.3 °F - N/A% 29.97 in 1.4 mi NW 26.5 mph 32.2 mph N/A Snow Light Snow
8:02 AM 23.0 °F 5.4 °F - N/A% 29.96 in 1.1 mi NW 29.9 mph - N/A Snow Light Snow
8:04 AM 23.0 °F 5.4 °F - N/A% 29.96 in 0.8 mi NW 29.9 mph - N/A Snow Light Snow
8:05 AM 23.0 °F 5.1 °F - N/A% 29.96 in 0.6 mi NW 31.1 mph - N/A Snow Light Snow
8:15 AM 23.0 °F 5.4 °F - N/A% 29.96 in 0.6 mi NW 29.9 mph - N/A Snow Light Snow
8:18 AM 23.0 °F 5.7 °F - N/A% 29.96 in 0.6 mi NW 28.8 mph 34.5 mph N/A Snow Light Snow
8:27 AM 23.0 °F 6.6 °F - N/A% 29.97 in 1.1 mi NW 25.3 mph 33.4 mph N/A Snow Light Snow
8:33 AM 23.0 °F 5.4 °F - N/A% 29.97 in 1.4 mi NW 29.9 mph - N/A Snow Light Snow
8:53 AM 23.0 °F 6.0 °F - N/A% 29.97 in 2.5 mi NNW 27.6 mph - N/A Snow Light Snow
8:57 AM 23.0 °F 5.1 °F - N/A% 29.98 in 1.4 mi NNW 31.1 mph - N/A Snow Light Snow
9:00 AM 23 °F - - % 29.99 in 1 mi NNW 28.8 mph - -   Overcast
9:00 AM 23.0 °F 5.7 °F - N/A% 29.99 in 1.0 mi NNW 28.8 mph 34.5 mph N/A Snow Light Snow
9:01 AM 23.0 °F 5.7 °F - N/A% 29.98 in 1.0 mi NNW 28.8 mph 34.5 mph N/A Snow Light Snow
9:24 AM 23.0 °F 6.6 °F - N/A% 29.99 in 1.5 mi NW 25.3 mph 33.4 mph N/A Snow Light Snow
9:53 AM 23.0 °F 6.9 °F - N/A% 29.99 in 1.4 mi NW 24.2 mph 29.9 mph N/A Snow Light Snow
10:00 AM 23.0 °F 6.6 °F - N/A% 30.01 in 1.5 mi NW 25.3 mph - N/A Snow Light Snow
10:07 AM 23.0 °F 6.3 °F - N/A% 30.00 in 2.4 mi NW 26.5 mph 32.2 mph N/A   Overcast
10:10 AM 23.0 °F 6.9 °F - N/A% 30.00 in 2.5 mi NW 24.2 mph 32.2 mph N/A Snow Light Snow
10:22 AM 23.0 °F 6.9 °F - N/A% 30.00 in 4.0 mi NW 24.2 mph - N/A Snow Light Snow
10:26 AM 23.0 °F 6.3 °F - N/A% 30.00 in 5.0 mi NW 26.5 mph - N/A   Mostly Cloudy
10:56 AM 23.0 °F 6.0 °F - N/A% 30.01 in 2.5 mi NW 27.6 mph - N/A   Overcast
10:58 AM 23.0 °F 5.7 °F - N/A% 30.01 in 2.1 mi NW 28.8 mph - N/A Snow Light Snow
11:00 AM 23.0 °F 5.7 °F - N/A% 30.03 in 15.0 mi NW 28.8 mph - N/A Snow Light Snow
12:00 PM 22 °F - - % 30.04 in 1 mi NW 27.6 mph - - Snow Light Snow
12:00 PM 23.0 °F 6.0 °F - N/A% 30.04 in 2.0 mi NW 27.6 mph 33.4 mph N/A Snow Light Snow
1:00 PM 21.2 °F 3.9 °F - N/A% 30.04 in 5.0 mi NW 26.5 mph - N/A Snow Light Snow
1:21 PM - - - N/A% - 2.0 mi NW 32.2 mph 38.0 mph N/A   Unknown
1:31 PM - - - N/A% - 0.8 mi NW 31.1 mph - N/A   Unknown
2:00 PM 23.0 °F 6.0 °F - N/A% 30.06 in 0.4 mi NW 27.6 mph 33.4 mph N/A Snow Light Snow Showers
2:13 PM - - - N/A% - 0.8 mi NW 27.6 mph - N/A   Unknown
3:00 PM 22 °F - - % 30.09 in 0 mi NW 31.1 mph - -   Overcast
3:00 PM 21.2 °F 2.4 °F - N/A% 30.09 in 0.4 mi WNW 32.2 mph - N/A Snow Light Snow Showers
4:00 PM 21.2 °F 5.6 °F - N/A% 30.12 in 0.4 mi NNW 20.7 mph 32.2 mph N/A Snow Light Snow Showers
5:00 PM 21.2 °F 3.0 °F - N/A% 30.13 in 0.5 mi NW 29.9 mph - N/A Snow Light Snow Showers
6:00 PM 21 °F - - % 30.15 in 1 mi NW 24.2 mph - - Snow Light Snow
6:00 PM 21.2 °F 3.9 °F - N/A% 30.15 in 0.8 mi NW 26.5 mph - N/A Snow Light Snow Showers
7:00 PM 21.2 °F 4.5 °F - N/A% 30.15 in 4.0 mi NW 24.2 mph - N/A   Overcast
7:52 PM 21.2 °F 4.9 °F - N/A% 30.15 in 3.5 mi NW 23.0 mph 28.8 mph N/A Snow Light Snow
8:00 PM 21.2 °F 4.9 °F - N/A% 30.17 in 4.0 mi NW 23.0 mph - N/A Snow Light Snow
8:34 PM 21.2 °F 6.8 °F - N/A% 30.16 in 9.0 mi WNW 17.3 mph - N/A   Mostly Cloudy
9:00 PM 20 °F - - % 30.17 in 9 mi WNW 20.7 mph - -   Overcast
10:00 PM 19.4 °F 2.8 °F - N/A% 30.18 in 9.0 mi WNW 21.9 mph - N/A   Overcast
11:00 PM 19.4 °F 4.1 °F - N/A% 30.18 in 9.0 mi WNW 18.4 mph - N/A   Overcast